Location: Ikejouine
(32.5142°N, 5.4699°W)
Time: 16:16:53
(UTC+00:00)

Cosmos 1953 Rocket - Pass Details

Date: 09 April 2020
Orbit: 604 x 635 km, 82.5° (Epoch: 26 May)

Event Time Altitude Azimuth Distance (km) Brightness Sun altitude
Rises 19:29:39 0° 5° (N) 2,933 7.2 -9.4°
Reaches altitude 10° 19:32:07 10° 16° (NNE) 2,023 6.2 -9.9°
Maximum altitude 19:36:07 31° 79° (E) 1,109 4.4 -10.7°
Enters shadow 19:39:56 11° 141° (SE) 1,956 5.6 -11.5°
